#timestamp,LO_Frequency,Hit 
1501747215.0,286046994.9,N
1501747215.9,286046994.9,N
1501747235.8,286046995.6,N
1501747255.6,286046998.0,N
1501747275.4,286046995.3,N
1501747295.3,286046999.0,N
1501747315.1,286046996.7,N
1501747316.0,286046996.7,N
1501747335.8,286046998.0,N
1501747355.6,286046996.4,N
1501747375.5,286046995.7,N
1501747395.3,286046995.6,N
1501747415.2,286046991.7,P
1501747435.9,286046995.7,N
1501747455.7,286046993.8,N
1501747475.6,286046994.4,P
1501747495.4,286047000.8,P
1501747515.2,286047000.0,N
1501747535.1,286047002.1,N
1501747536.0,286047002.1,N
1501747555.8,286047001.3,N
1501747575.6,286047002.7,N
1501747595.4,286047002.0,N
1501747615.3,286047002.5,N
1501747635.1,286047003.2,N
1501747655.8,286047004.1,N
1501747675.7,286047002.5,N
1501747695.5,286046998.1,N
1501747715.3,286046998.8,N
1501747735.2,286047000.8,N
1501747755.9,286047000.8,N
1501747775.7,286047002.4,N
1501747795.6,286047000.9,N
1501747815.4,286046998.5,N
1501747835.2,286046998.3,N
1501747855.0,286047000.5,N
1501747856.0,286047000.5,N
1501747875.8,286047004.3,N
1501747895.6,286047003.0,N
1501747915.4,286047003.0,N
1501747935.3,286047005.7,N
1501747955.1,286047001.8,N
1501747975.8,286047001.8,N
1501747995.7,286047001.4,N
1501748015.5,286047002.6,N
1501748035.3,286047004.4,N
1501748055.2,286047002.0,N
1501748075.9,286046998.1,N
1501748095.7,286047000.4,N
1501748115.6,286047003.0,N
1501748135.4,286047007.1,P
1501748155.2,286047003.3,N
1501748175.1,286047000.1,N
1501748176.0,286047000.1,N
1501748195.8,286047001.1,N
1501748215.6,286047000.0,N
1501748235.5,286046998.1,N
1501748255.3,286046997.0,N
1501748275.1,286046999.1,N
1501748295.9,286046997.3,N
1501748315.7,286046995.8,N
1501748335.5,286046998.1,N
1501748355.3,286047000.3,N
1501748375.2,286047000.4,N
1501748395.0,286047002.7,N
1501748395.9,286047002.7,N
1501748415.7,286047002.3,N
1501748435.6,286047000.0,N
1501748455.4,286047000.1,N
1501748475.2,286046998.8,N
1501748495.1,286046999.1,N
1501748496.0,286046999.1,N
1501748515.8,286046997.4,N
1501748535.6,286046994.9,N
1501748555.5,286046993.6,N
1501748575.3,286046995.9,N
1501748595.1,286046995.3,N
1501748615.9,286046994.8,N
1501748635.7,286046992.0,N
1501748655.5,286046991.8,N
1501748675.4,286046992.1,N
1501748695.2,286046994.4,N
1501748715.0,286046996.1,N
1501748715.9,286046996.1,N
1501748735.8,286046994.7,N
1501748755.6,286046991.7,N
1501748775.4,286046989.3,P
1501748795.3,286046990.2,N
1501748815.1,286046993.9,N
1501748816.0,286046993.9,N
1501748835.8,286046996.9,N
1501748855.7,286047001.2,N
1501748875.5,286046999.2,N
1501748895.3,286046995.0,N
1501748915.2,286046997.8,N
1501748935.9,286046995.0,N
1501748955.7,286046996.2,N
1501748975.5,286046997.2,N
1501748995.4,286047000.8,N
1501749015.2,286047000.8,N
1501749035.9,286046998.4,N
1501749055.7,286046996.5,N
1501749075.5,286046996.7,N
1501749095.4,286046997.2,N
1501749115.2,286046997.6,N
1501749135.0,286046995.5,N
1501749135.9,286046995.5,N
1501749155.8,286046997.5,N
1501749175.6,286046995.5,N
1501749195.4,286046994.1,N
1501749215.3,286046996.0,N
1501749235.1,286046995.0,N
1501749236.0,286046995.0,N
1501749255.7,286046996.7,N
1501749275.5,286046997.3,N
1501749295.3,286046996.2,N
1501749315.2,286046994.0,N
1501749335.9,286046994.7,N
1501749355.7,286046990.2,P
1501749375.6,286046993.3,N
1501749395.4,286046996.2,N
1501749415.2,286046994.5,N
1501749435.1,286046994.4,N
1501749436.0,286046994.4,N
1501749455.8,286046995.1,N
1501749475.6,286046997.6,N
1501749495.5,286046996.0,N
1501749515.3,286046995.1,N
1501749535.1,286047000.0,N
1501749555.9,286047000.8,N
1501749575.7,286047000.5,N
1501749595.5,286046998.5,N
1501749615.3,286047000.4,N
1501749635.2,286047003.2,N
1501749655.0,286047004.3,N
1501749655.9,286047004.3,N
1501749675.4,286047005.3,N
1501749695.2,286047007.6,N
1501749715.1,286047003.7,N
1501749716.0,286047003.7,N
1501749735.8,286047001.9,N
1501749755.6,286047001.7,N
1501749775.5,286047001.6,N
1501749795.3,286047002.1,N
1501749815.1,286047001.7,N
1501749835.9,286047001.0,N
1501749855.7,286046998.1,N
1501749875.5,286047000.9,N
1501749895.4,286046996.9,N
1501749915.2,286046997.3,N
1501749935.0,286046999.1,N
1501749935.9,286046999.1,N
1501749955.8,286046996.4,N
1501749975.6,286046993.8,N
1501749995.4,286046995.3,N
1501750015.2,286046995.4,N
1501750035.1,286046996.1,N
1501750036.0,286046996.1,N
1501750055.8,286046995.8,N
1501750075.6,286046997.2,N
1501750095.5,286046995.5,N
1501750115.3,286046994.3,N
1501750135.1,286046991.2,N
1501750155.9,286046990.3,N
1501750175.7,286046990.2,N
1501750195.5,286046989.8,N
1501750215.4,286046992.0,N
1501750235.2,286046995.8,N
1501750255.0,286046994.9,N
1501750255.9,286046994.9,N
1501750275.8,286046996.0,N
1501750295.6,286046996.0,N
1501750315.4,286046990.1,N
1501750335.3,286046992.2,N
1501750355.1,286046995.9,N
1501750356.0,286046995.9,N
1501750375.8,286046994.1,N
1501750395.7,286046994.2,N
1501750415.5,286046991.7,P
1501750435.3,286046997.0,N
1501750455.2,286046997.3,N
1501750475.9,286046999.2,N
1501750495.7,286046999.6,N
1501750515.6,286046997.2,N
1501750535.4,286046998.0,N
1501750555.2,286046996.0,N
1501750575.1,286046993.5,N
1501750576.0,286046993.5,N
1501750595.8,286046992.5,P
1501750615.6,286046995.4,N
1501750635.5,286046996.3,N
1501750655.3,286046995.6,N
1501750675.1,286046995.0,P
1501750695.9,286046999.8,N
1501750715.7,286047001.6,N
1501750735.5,286047005.6,N
1501750755.4,286047007.5,N
1501750775.3,286047008.7,N
1501750795.1,286047006.0,N
1501750796.0,286047006.0,N
